User: anonymous   Login
Location: Mentone
(34.5413°N, 85.5351°W)
Time: 02:41:35
(UTC-06:00)
Language:

Okean O Rocket - Orbit

View from above orbital plane
View from above orbital plane
View from above satellite
View from above satellite

Ground track
Ground track

The orbit data is extracted from the following two-line orbital elements,

1 25861U 99039B   17018.53708417  .00000025  00000-0  10860-4 0  9990
2 25861  98.0851 349.0196 0015189 198.9599 275.3894 14.78380805943661
Epoch (UTC): 18 January 2017 12:53:24
Eccentricity: 0.0015189
inclination: 98.0851°
perigee height: 624 km
apogee height: 645 km
right ascension of ascending node: 349.0196°
argument of perigee: 198.9599°
revolutions per day: 14.78380805
mean anomaly at epoch: 275.3894°
orbit number at epoch: 94366

The dashed part of the orbit path shows where the satellite is in the earth's shadow,  

DLR